When you browse on this site, cookies collect data to enhance your experience and personalize the content and advertising you see.
Visit our Privacy Policy to learn more. By continuing to use the site, you agree to this use of cookies and data.
EN

Hourly Weather Alia

Today, 15 August, Saturday

Time Temperature Precipitation Wind Pressure Humidity
00:00 +25°C° 0 mm 1 mps 709 mmHg 52%
01:00 +25°C° 0 mm 1 mps 709 mmHg 52%
02:00 +25°C° 0 mm 1 mps 708 mmHg 51%
03:00 +25°C° 0 mm 1 mps 708 mmHg 51%
04:00 +25°C° 0 mm 1 mps 707 mmHg 50%
05:00 +26°C° 0 mm 1 mps 708 mmHg 47%
06:00 +28°C° 0 mm 1 mps 708 mmHg 44%
07:00 +29°C° 0 mm 1 mps 709 mmHg 40%
08:00 +31°C° 0 mm 2 mps 709 mmHg 35%
09:00 +34°C° 0 mm 3 mps 709 mmHg 30%
10:00 +37°C° 0 mm 4 mps 710 mmHg 24%
11:00 +37°C° 0 mm 4 mps 710 mmHg 24%
12:00 +38°C° 0 mm 4 mps 710 mmHg 24%
13:00 +39°C° 0 mm 5 mps 710 mmHg 24%
14:00 +37°C° 0 mm 5 mps 709 mmHg 25%
15:00 +37°C° 0 mm 4 mps 709 mmHg 26%
16:00 +36°C° 0 mm 4 mps 709 mmHg 28%
17:00 +34°C° 0 mm 3 mps 708 mmHg 34%
18:00 +30°C° 0 mm 2 mps 708 mmHg 41%
19:00 +28°C° 0 mm 1 mps 708 mmHg 48%
20:00 +27°C° 0 mm 1 mps 708 mmHg 51%
21:00 +26°C° 0 mm 1 mps 708 mmHg 53%
22:00 +25°C° 0 mm 1 mps 708 mmHg 56%
23:00 +25°C° 0 mm 1 mps 708 mmHg 54%

Tomorrow, 16 August, Sunday

Time Temperature Precipitation Wind Pressure Humidity
00:00 +25°C° 0 mm 1 mps 707 mmHg 51%
01:00 +25°C° 0 mm 1 mps 707 mmHg 49%
02:00 +24°C° 0 mm 1 mps 707 mmHg 47%
03:00 +24°C° 0 mm 1 mps 707 mmHg 45%
04:00 +24°C° 0 mm 1 mps 707 mmHg 43%
05:00 +25°C° 0 mm 1 mps 707 mmHg 40%
06:00 +26°C° 0 mm 1 mps 707 mmHg 36%
07:00 +28°C° 0 mm 1 mps 708 mmHg 32%
08:00 +30°C° 0 mm 1 mps 708 mmHg 28%
09:00 +32°C° 0 mm 2 mps 709 mmHg 25%
10:00 +36°C° 0 mm 2 mps 709 mmHg 21%
11:00 +37°C° 0 mm 3 mps 709 mmHg 21%
12:00 +37°C° 0 mm 4 mps 709 mmHg 21%
13:00 +38°C° 0 mm 4 mps 709 mmHg 22%
14:00 +38°C° 0 mm 4 mps 709 mmHg 22%
15:00 +37°C° 0 mm 4 mps 709 mmHg 23%
16:00 +37°C° 0 mm 4 mps 708 mmHg 24%
17:00 +35°C° 0 mm 3 mps 708 mmHg 29%
18:00 +31°C° 0 mm 2 mps 708 mmHg 34%
19:00 +29°C° 0 mm 1 mps 707 mmHg 39%
20:00 +28°C° 0 mm 1 mps 707 mmHg 41%
21:00 +25°C° 0 mm 0 mps 708 mmHg 44%
22:00 +24°C° 0 mm 0 mps 708 mmHg 46%
23:00 +24°C° 0 mm 0 mps 708 mmHg 47%

Day after tomorrow, 17 August, Monday

Time Temperature Precipitation Wind Pressure Humidity
00:00 +23°C° 0 mm 0 mps 708 mmHg 47%
01:00 +25°C° 0 mm 1 mps 708 mmHg 48%
02:00 +25°C° 0 mm 1 mps 707 mmHg 47%
03:00 +25°C° 0 mm 1 mps 707 mmHg 47%
04:00 +25°C° 0 mm 1 mps 707 mmHg 46%
05:00 +26°C° 0 mm 1 mps 707 mmHg 43%
06:00 +27°C° 0 mm 1 mps 708 mmHg 39%
07:00 +29°C° 0 mm 1 mps 708 mmHg 36%
08:00 +31°C° 0 mm 1 mps 708 mmHg 31%
09:00 +34°C° 0 mm 1 mps 709 mmHg 26%
10:00 +37°C° 0 mm 2 mps 709 mmHg 21%
11:00 +38°C° 0 mm 3 mps 709 mmHg 21%
12:00 +38°C° 0 mm 4 mps 709 mmHg 21%
13:00 +40°C° 0 mm 5 mps 709 mmHg 21%
14:00 +39°C° 0 mm 5 mps 709 mmHg 21%
15:00 +39°C° 0 mm 5 mps 709 mmHg 22%
16:00 +39°C° 0 mm 5 mps 709 mmHg 22%
17:00 +35°C° 0 mm 3 mps 708 mmHg 29%
18:00 +31°C° 0 mm 2 mps 708 mmHg 35%
19:00 +29°C° 0 mm 1 mps 708 mmHg 42%
20:00 +28°C° 0 mm 1 mps 708 mmHg 45%
21:00 +27°C° 0 mm 1 mps 708 mmHg 49%
22:00 +24°C° 0 mm 0 mps 708 mmHg 52%
23:00 +25°C° 0 mm 1 mps 708 mmHg 52%

18 August, Tuesday

Time Temperature Precipitation Wind Pressure Humidity
00:00 +25°C° 0 mm 1 mps 708 mmHg 51%
01:00 +25°C° 0 mm 1 mps 708 mmHg 50%
02:00 +25°C° 0 mm 1 mps 707 mmHg 50%
03:00 +25°C° 0 mm 1 mps 707 mmHg 50%
04:00 +24°C° 0 mm 1 mps 707 mmHg 49%
05:00 +26°C° 0 mm 1 mps 707 mmHg 45%
06:00 +27°C° 0 mm 1 mps 707 mmHg 41%
07:00 +29°C° 0 mm 1 mps 708 mmHg 37%
08:00 +31°C° 0 mm 1 mps 708 mmHg 31%
09:00 +35°C° 0 mm 2 mps 708 mmHg 25%
10:00 +37°C° 0 mm 2 mps 709 mmHg 19%
11:00 +38°C° 0 mm 3 mps 709 mmHg 19%
12:00 +40°C° 0 mm 4 mps 709 mmHg 18%
13:00 +41°C° 0 mm 4 mps 709 mmHg 18%
14:00 +40°C° 0 mm 4 mps 708 mmHg 19%
15:00 +40°C° 0 mm 4 mps 708 mmHg 21%
16:00 +38°C° 0 mm 4 mps 708 mmHg 22%
17:00 +35°C° 0 mm 3 mps 707 mmHg 27%
18:00 +32°C° 0 mm 2 mps 707 mmHg 32%
19:00 +29°C° 0 mm 1 mps 706 mmHg 36%
20:00 +29°C° 0 mm 1 mps 707 mmHg 37%
21:00 +28°C° 0 mm 1 mps 707 mmHg 38%
22:00 +28°C° 0 mm 1 mps 707 mmHg 38%
23:00 +27°C° 0 mm 1 mps 707 mmHg 40%

19 August, Wednesday

Time Temperature Precipitation Wind Pressure Humidity
00:00 +27°C° 0 mm 1 mps 706 mmHg 42%
01:00 +26°C° 0 mm 1 mps 706 mmHg 44%
02:00 +26°C° 0 mm 1 mps 706 mmHg 44%
03:00 +26°C° 0 mm 1 mps 706 mmHg 45%
04:00 +26°C° 0 mm 1 mps 705 mmHg 46%
05:00 +27°C° 0 mm 1 mps 705 mmHg 46%
06:00 +27°C° 0 mm 1 mps 706 mmHg 46%
07:00 +28°C° 0 mm 2 mps 706 mmHg 46%
08:00 +30°C° 0 mm 3 mps 706 mmHg 39%
09:00 +34°C° 0 mm 4 mps 706 mmHg 33%
10:00 +36°C° 0 mm 5 mps 707 mmHg 26%
11:00 +36°C° 0 mm 5 mps 707 mmHg 25%
12:00 +36°C° 0 mm 5 mps 707 mmHg 24%
13:00 +37°C° 0 mm 5 mps 707 mmHg 23%
14:00 +36°C° 0 mm 5 mps 707 mmHg 27%
15:00 +34°C° 0 mm 5 mps 707 mmHg 30%
16:00 +33°C° 0 mm 5 mps 706 mmHg 33%
17:00 +30°C° 0 mm 4 mps 706 mmHg 46%
18:00 +27°C° 0 mm 3 mps 705 mmHg 59%
19:00 +24°C° 0 mm 2 mps 705 mmHg 73%
20:00 +23°C° 0 mm 2 mps 705 mmHg 78%
21:00 +23°C° 0 mm 2 mps 705 mmHg 84%
22:00 +22°C° 0 mm 1 mps 705 mmHg 90%
23:00 +22°C° 0 mm 1 mps 705 mmHg 87%

20 August, Thursday

Time Temperature Precipitation Wind Pressure Humidity
00:00 +21°C° 0 mm 1 mps 705 mmHg 85%
01:00 +21°C° 0 mm 1 mps 705 mmHg 83%
02:00 +21°C° 0 mm 1 mps 705 mmHg 81%
03:00 +20°C° 0 mm 1 mps 704 mmHg 78%
04:00 +20°C° 0 mm 1 mps 704 mmHg 75%
05:00 +21°C° 0 mm 1 mps 705 mmHg 69%
06:00 +23°C° 0 mm 1 mps 705 mmHg 63%
07:00 +24°C° 0 mm 1 mps 705 mmHg 57%
08:00 +26°C° 0 mm 2 mps 706 mmHg 50%
09:00 +28°C° 0 mm 2 mps 707 mmHg 42%
10:00 +30°C° 0 mm 3 mps 707 mmHg 35%
11:00 +31°C° 0 mm 3 mps 707 mmHg 34%
12:00 +32°C° 0 mm 4 mps 707 mmHg 33%
13:00 +33°C° 0 mm 4 mps 707 mmHg 32%
14:00 +32°C° 0 mm 4 mps 707 mmHg 35%
15:00 +32°C° 0 mm 4 mps 707 mmHg 37%
16:00 +30°C° 0 mm 4 mps 707 mmHg 40%
17:00 +28°C° 0 mm 4 mps 706 mmHg 51%
18:00 +25°C° 0 mm 3 mps 706 mmHg 62%
19:00 +23°C° 0 mm 2 mps 706 mmHg 72%
20:00 +21°C° 0 mm 2 mps 706 mmHg 78%
21:00 +20°C° 0 mm 2 mps 706 mmHg 84%
22:00 +19°C° 0 mm 2 mps 707 mmHg 90%
23:00 +19°C° 0 mm 2 mps 707 mmHg 90%
Show more